| time (UTC) | temp C | wind direction | speed KPH | gust KPH | rain 1hr cm | rain 24hr cm | rain mn cm | humidity % | barometer mb |
| 20260506124528 | 13 | 351 | 3.2 | 11.3 | 0.00 | 1.09 | 0.18 | 83 | 1008.9 |
| 20260506124028 | 13 | 331 | 3.2 | 12.9 | 0.00 | 1.09 | 0.18 | 83 | 1008.8 |
| 20260506123533 | 13 | 333 | 3.2 | 12.9 | 0.00 | 1.09 | 0.18 | 84 | 1008.8 |
| 20260506123033 | 13 | 345 | 4.8 | 9.7 | 0.00 | 1.09 | 0.18 | 85 | 1008.8 |
| 20260506122540 | 12 | 5 | 1.6 | 8.0 | 0.00 | 1.09 | 0.18 | 85 | 1008.8 |
| 20260506121530 | 12 | 334 | 3.2 | 9.7 | 0.00 | 1.09 | 0.18 | 85 | 1008.7 |
| 20260506121029 | 12 | 341 | 4.8 | 14.5 | 0.00 | 1.09 | 0.18 | 83 | 1008.7 |
| 20260506120532 | 12 | 323 | 4.8 | 14.5 | 0.00 | 1.09 | 0.18 | 83 | 1008.7 |
| 20260506120027 | 12 | 323 | 3.2 | 8.0 | 0.00 | 1.09 | 0.18 | 84 | 1008.8 |
| 20260506115531 | 12 | 349 | 3.2 | 14.5 | 0.00 | 1.09 | 0.18 | 84 | 1008.8 |
| 20260506115056 | 12 | 336 | 4.8 | 14.5 | 0.00 | 1.09 | 0.18 | 83 | 1008.8 |
| 20260506114528 | 12 | 355 | 4.8 | 12.9 | 0.00 | 1.09 | 0.18 | 85 | 1008.8 |
| 20260506114102 | 12 | 348 | 4.8 | 12.9 | 0.00 | 1.09 | 0.18 | 85 | 1008.8 |
| 20260506113552 | 12 | 333 | 4.8 | 12.9 | 0.00 | 1.09 | 0.18 | 85 | 1008.8 |
| 20260506113033 | 11 | 355 | 3.2 | 9.7 | 0.00 | 1.09 | 0.18 | 87 | 1008.8 |
| 20260506112541 | 11 | 339 | 3.2 | 9.7 | 0.00 | 1.09 | 0.18 | 88 | 1008.7 |
| 20260506112041 | 11 | 16 | 3.2 | 8.0 | 0.00 | 1.09 | 0.18 | 88 | 1008.8 |
| 20260506111530 | 11 | 343 | 1.6 | 8.0 | 0.00 | 1.09 | 0.18 | 89 | 1008.8 |
| 20260506111044 | 11 | 344 | 3.2 | 8.0 | 0.00 | 1.09 | 0.18 | 88 | 1008.7 |
| 20260506110542 | 11 | 355 | 3.2 | 12.9 | 0.00 | 1.09 | 0.18 | 88 | 1008.7 |
| 20260506110055 | 11 | 355 | 4.8 | 12.9 | 0.00 | 1.91 | 0.18 | 87 | 1008.7 |
| 20260506105532 | 11 | 347 | 3.2 | 9.7 | 0.00 | 1.91 | 0.18 | 88 | 1008.7 |
| 20260506105032 | 11 | 335 | 4.8 | 12.9 | 0.00 | 1.91 | 0.18 | 87 | 1008.7 |
| 20260506104540 | 11 | 16 | 4.8 | 14.5 | 0.00 | 1.91 | 0.18 | 87 | 1008.7 |
| 20260506104038 | 11 | 19 | 4.8 | 16.1 | 0.00 | 1.91 | 0.18 | 87 | 1008.7 |
| 20260506103531 | 11 | 5 | 6.4 | 16.1 | 0.00 | 1.91 | 0.18 | 89 | 1008.6 |
| 20260506103029 | 11 | 347 | 6.4 | 14.5 | 0.00 | 1.91 | 0.18 | 88 | 1008.6 |
| 20260506102541 | 11 | 335 | 3.2 | 19.3 | 0.00 | 1.91 | 0.18 | 89 | 1008.6 |
| 20260506102028 | 11 | 19 | 8.0 | 19.3 | 0.00 | 1.91 | 0.18 | 89 | 1008.6 |
| 20260506101530 | 11 | 355 | 12.9 | 19.3 | 0.00 | 1.91 | 0.18 | 88 | 1008.5 |
| 20260506101055 | 11 | 338 | 8.0 | 17.7 | 0.00 | 1.91 | 0.18 | 90 | 1008.5 |
| 20260506100539 | 11 | 17 | 8.0 | 19.3 | 0.00 | 1.91 | 0.18 | 90 | 1008.4 |
| 20260506100034 | 11 | 14 | 8.0 | 22.5 | 0.00 | 2.11 | 0.18 | 89 | 1008.4 |
| 20260506095532 | 11 | 355 | 14.5 | 22.5 | 0.00 | 2.11 | 0.18 | 88 | 1008.3 |
| 20260506095032 | 11 | 19 | 12.9 | 22.5 | 0.00 | 2.11 | 0.18 | 89 | 1008.2 |
| 20260506094537 | 11 | 22 | 12.9 | 20.9 | 0.00 | 2.11 | 0.18 | 90 | 1008.2 |
| 20260506094033 | 11 | 355 | 12.9 | 20.9 | 0.00 | 2.11 | 0.18 | 89 | 1008.1 |
| 20260506093532 | 11 | 335 | 11.3 | 22.5 | 0.00 | 2.11 | 0.18 | 89 | 1008.0 |
| 20260506093031 | 11 | 13 | 14.5 | 22.5 | 0.00 | 2.11 | 0.18 | 90 | 1008.0 |
| 20260506092601 | 11 | 355 | 11.3 | 19.3 | 0.00 | 2.11 | 0.18 | 90 | 1008.0 |
| 20260506092045 | 11 | 360 | 11.3 | 25.7 | 0.00 | 2.11 | 0.18 | 91 | 1007.9 |
| 20260506091528 | 10 | 67 | 17.7 | 25.7 | 0.10 | 2.11 | 0.18 | 91 | 1007.8 |
| 20260506091027 | 10 | 355 | 14.5 | 20.9 | 0.10 | 2.11 | 0.18 | 92 | 1007.8 |
| 20260506090534 | 10 | 344 | 9.7 | 22.5 | 0.10 | 2.11 | 0.18 | 93 | 1007.8 |
| 20260506090035 | 10 | 355 | 16.1 | 27.4 | 0.10 | 3.10 | 0.18 | 92 | 1007.7 |
| 20260506085546 | 10 | 9 | 14.5 | 27.4 | 0.10 | 3.10 | 0.18 | 93 | 1007.7 |
| 20260506085045 | 10 | 5 | 12.9 | 24.1 | 0.10 | 3.10 | 0.18 | 93 | 1007.6 |
| 20260506084534 | 10 | 13 | 16.1 | 24.1 | 0.10 | 3.10 | 0.18 | 93 | 1007.5 |
| 20260506084034 | 10 | 346 | 16.1 | 24.1 | 0.10 | 3.10 | 0.18 | 93 | 1007.6 |
| 20260506083540 | 10 | 348 | 14.5 | 22.5 | 0.10 | 3.10 | 0.18 | 93 | 1007.5 |
| 20260506083038 | 10 | 340 | 11.3 | 22.5 | 0.10 | 3.10 | 0.18 | 94 | 1007.5 |
| 20260506082530 | 10 | 10 | 14.5 | 24.1 | 0.10 | 3.10 | 0.18 | 94 | 1007.4 |
| 20260506082027 | 10 | 5 | 14.5 | 22.5 | 0.10 | 3.10 | 0.18 | 93 | 1007.5 |
| 20260506081541 | 10 | 342 | 11.3 | 20.9 | 0.00 | 3.00 | 0.15 | 94 | 1007.4 |
| 20260506081043 | 10 | 355 | 9.7 | 19.3 | 0.00 | 3.00 | 0.15 | 95 | 1007.3 |
| 20260506080528 | 10 | 22 | 11.3 | 19.3 | 0.00 | 3.00 | 0.15 | 95 | 1007.2 |
| 20260506073042 | 10 | 355 | 11.3 | 20.9 | 0.10 | 4.70 | 0.15 | 96 | 1007.0 |
| 20260506072542 | 10 | 5 | 11.3 | 20.9 | 0.20 | 4.70 | 0.15 | 96 | 1006.8 |
| 20260506072027 | 10 | 13 | 12.9 | 20.9 | 0.20 | 4.70 | 0.15 | 96 | 1006.8 |
| 20260506071536 | 10 | 17 | 12.9 | 17.7 | 0.20 | 4.70 | 0.15 | 96 | 1006.8 |
| 20260506071045 | 10 | 350 | 8.0 | 16.1 | 0.20 | 4.70 | 0.15 | 96 | 1006.8 |
| 20260506070531 | 10 | 355 | 6.4 | 17.7 | 0.20 | 4.70 | 0.15 | 97 | 1006.7 |
| 20260506062042 | 10 | 360 | 8.0 | 16.1 | 0.10 | 6.71 | 0.13 | 96 | 1006.3 |
| 20260506061538 | 10 | 23 | 4.8 | 16.1 | 0.10 | 6.71 | 0.13 | 96 | 1006.3 |
| 20260506061033 | 10 | 344 | 8.0 | 16.1 | 0.10 | 6.71 | 0.13 | 96 | 1006.3 |
| 20260506060526 | 10 | 351 | 6.4 | 12.9 | 0.10 | 6.71 | 0.13 | 96 | 1006.2 |
| 20260506060105 | 10 | 16 | 6.4 | 14.5 | 0.10 | 7.19 | 0.13 | 96 | 1006.1 |
| 20260506051050 | 10 | 355 | 6.4 | 14.5 | 0.00 | 7.11 | 0.10 | 96 | 1005.7 |
| 20260506050535 | 10 | 5 | 4.8 | 14.5 | 0.00 | 7.11 | 0.10 | 96 | 1005.6 |
| 20260506045034 | 10 | 355 | 4.8 | 17.7 | 0.00 | 7.11 | 0.10 | 96 | 1005.5 |
| 20260506044540 | 10 | 5 | 8.0 | 14.5 | 0.00 | 7.11 | 0.10 | 96 | 1005.5 |
| 20260506044046 | 10 | 9 | 8.0 | 19.3 | 0.10 | 7.11 | 0.10 | 96 | 1005.5 |
| 20260506043537 | 10 | 355 | 11.3 | 19.3 | 0.10 | 7.11 | 0.10 | 96 | 1005.4 |
| 20260506043033 | 10 | 360 | 8.0 | 24.1 | 0.10 | 7.11 | 0.10 | 96 | 1005.4 |
| 20260506042538 | 10 | 348 | 11.3 | 24.1 | 0.10 | 7.11 | 0.10 | 96 | 1005.3 |
| 20260506042039 | 10 | 348 | 6.4 | 19.3 | 0.10 | 7.11 | 0.10 | 96 | 1005.3 |
| 20260506041549 | 10 | 350 | 9.7 | 20.9 | 0.10 | 7.11 | 0.10 | 96 | 1005.2 |
| 20260506041028 | 11 | 333 | 11.3 | 20.9 | 0.10 | 7.11 | 0.10 | 97 | 1005.2 |
| 20260506040556 | 11 | 328 | 12.9 | 16.1 | 0.10 | 7.11 | 0.10 | 97 | 1005.1 |
| 20260506040028 | 11 | 344 | 8.0 | 14.5 | 0.10 | 7.29 | 0.10 | 97 | 1005.1 |
| 20260506035539 | 11 | 343 | 8.0 | 14.5 | 0.10 | 7.29 | 0.10 | 97 | 1005.1 |
| 20260506035040 | 11 | 342 | 6.4 | 14.5 | 0.10 | 7.29 | 0.10 | 97 | 1005.2 |
| 20260506034544 | 11 | 346 | 4.8 | 16.1 | 0.00 | 7.19 | 0.08 | 97 | 1005.3 |
| 20260506034043 | 11 | 348 | 6.4 | 16.1 | 0.10 | 7.19 | 0.08 | 96 | 1005.3 |
| 20260506033536 | 11 | 12 | 9.7 | 17.7 | 0.10 | 7.19 | 0.08 | 97 | 1005.3 |
| 20260506033030 | 11 | 355 | 11.3 | 17.7 | 0.10 | 7.19 | 0.08 | 96 | 1005.2 |
| 20260506032539 | 11 | 9 | 8.0 | 17.7 | 0.10 | 7.19 | 0.08 | 96 | 1005.3 |
| 20260506032037 | 11 | 322 | 9.7 | 17.7 | 0.10 | 7.19 | 0.08 | 96 | 1005.3 |
| 20260506031541 | 11 | 355 | 6.4 | 14.5 | 0.20 | 7.19 | 0.08 | 96 | 1005.2 |
| 20260506031053 | 11 | 341 | 6.4 | 14.5 | 0.20 | 7.19 | 0.08 | 97 | 1005.2 |
| 20260506030534 | 11 | 315 | 6.4 | 16.1 | 0.20 | 7.19 | 0.08 | 97 | 1005.2 |
| 20260506030031 | 11 | 332 | 8.0 | 16.1 | 0.20 | 7.59 | 0.08 | 96 | 1005.2 |
| 20260506025532 | 11 | 338 | 9.7 | 22.5 | 0.20 | 7.59 | 0.08 | 96 | 1005.2 |
| 20260506025036 | 11 | 10 | 9.7 | 22.5 | 0.20 | 7.59 | 0.08 | 96 | 1005.3 |
| 20260506024540 | 11 | 340 | 6.4 | 14.5 | 0.20 | 7.59 | 0.08 | 96 | 1005.3 |
| 20260506024042 | 11 | 336 | 8.0 | 14.5 | 0.10 | 7.49 | 0.05 | 96 | 1005.3 |
| 20260506023531 | 11 | 16 | 6.4 | 14.5 | 0.10 | 7.49 | 0.05 | 96 | 1005.3 |
| 20260506023037 | 11 | 360 | 6.4 | 9.7 | 0.10 | 7.49 | 0.05 | 96 | 1005.3 |
| 20260506022541 | 11 | 345 | 4.8 | 9.7 | 0.10 | 7.49 | 0.05 | 96 | 1005.4 |
| 20260506022045 | 11 | 325 | 1.6 | 8.0 | 0.10 | 7.49 | 0.05 | 96 | 1005.4 |
| 20260506021534 | 11 | 284 | 3.2 | 11.3 | 0.00 | 7.39 | 0.05 | 97 | 1005.4 |
| 20260506021029 | 11 | 267 | 4.8 | 11.3 | 0.00 | 7.39 | 0.05 | 97 | 1005.3 |
| 20260506020542 | 11 | 264 | 1.6 | 6.4 | 0.10 | 7.39 | 0.05 | 97 | 1005.2 |
| 20260506020058 | 11 | 268 | 1.6 | 8.0 | 0.10 | 7.39 | 0.05 | 97 | 1005.2 |
| 20260506015552 | 11 | 221 | 3.2 | 8.0 | 0.10 | 7.39 | 0.05 | 96 | 1005.3 |
| 20260506015047 | 11 | 234 | 1.6 | 6.4 | 0.20 | 7.39 | 0.05 | 96 | 1005.3 |
| 20260506014535 | 11 | 223 | 3.2 | 6.4 | 0.20 | 7.39 | 0.05 | 96 | 1005.3 |
| 20260506014034 | 11 | 234 | 3.2 | 6.4 | 0.20 | 7.39 | 0.05 | 96 | 1005.4 |
| 20260506013539 | 11 | 219 | 3.2 | 8.0 | 0.20 | 7.39 | 0.05 | 96 | 1005.5 |
| 20260506013036 | 11 | 220 | 3.2 | 8.0 | 0.20 | 7.39 | 0.05 | 96 | 1005.5 |
| 20260506012541 | 11 | 233 | 1.6 | 11.3 | 0.20 | 7.39 | 0.05 | 96 | 1005.5 |
| 20260506012034 | 11 | 235 | 4.8 | 12.9 | 0.20 | 7.39 | 0.05 | 96 | 1005.5 |
| 20260506011604 | 11 | 288 | 3.2 | 12.9 | 0.20 | 7.39 | 0.05 | 96 | 1005.5 |
| 20260506011036 | 11 | 284 | 3.2 | 9.7 | 0.20 | 7.39 | 0.05 | 96 | 1005.5 |
| 20260506010537 | 11 | 247 | 3.2 | 12.9 | 0.10 | 7.29 | 0.03 | 96 | 1005.6 |
| 20260506010037 | 11 | 250 | 3.2 | 12.9 | 0.10 | 7.29 | 0.03 | 96 | 1005.7 |
| 20260506005542 | 12 | 252 | 4.8 | 8.0 | 0.10 | 7.29 | 0.03 | 96 | 1005.7 |
| 20260506005038 | 12 | 235 | 3.2 | 9.7 | 0.00 | 7.19 | 0.00 | 96 | 1005.7 |
| 20260506004558 | 12 | 219 | 4.8 | 8.0 | 0.00 | 7.19 | 0.00 | 96 | 1005.8 |
| 20260506004033 | 12 | 219 | 1.6 | 8.0 | 0.00 | 7.19 | 0.00 | 96 | 1005.8 |
| 20260506003535 | 12 | 250 | 3.2 | 9.7 | 0.00 | 7.19 | 0.00 | 96 | 1005.9 |
| 20260506003037 | 12 | 211 | 3.2 | 8.0 | 0.00 | 7.19 | 0.00 | 96 | 1006.0 |
| 20260506002541 | 12 | 209 | 3.2 | 6.4 | 0.00 | 7.19 | 0.00 | 96 | 1006.0 |
| 20260506002042 | 12 | 198 | 1.6 | 8.0 | 0.00 | 7.19 | 0.00 | 96 | 1006.1 |
| 20260506001553 | 12 | 227 | 3.2 | 8.0 | 0.00 | 7.19 | 0.00 | 96 | 1006.1 |
| 20260506001039 | 12 | 246 | 3.2 | 6.4 | 0.00 | 7.19 | 0.00 | 96 | 1006.0 |
| 20260506000546 | 12 | 225 | 3.2 | 4.8 | 0.00 | 7.19 | 0.00 | 96 | 1006.0 |
| 20260506000045 | 12 | 242 | 1.6 | 4.8 | 0.00 | 7.19 | 1.45 | 96 | 1006.0 |
| 20260505235607 | 12 | 245 | 1.6 | 4.8 | 0.00 | 7.19 | 1.45 | 96 | 1006.1 |
| 20260505235050 | 12 | 236 | 1.6 | 6.4 | 0.00 | 7.19 | 1.45 | 96 | 1006.1 |
| 20260505234534 | 12 | 209 | 1.6 | 6.4 | 0.00 | 7.19 | 1.45 | 96 | 1006.1 |
| 20260505234033 | 12 | 209 | 1.6 | 6.4 | 0.00 | 7.19 | 1.45 | 96 | 1006.2 |
| 20260505233539 | 12 | 276 | 1.6 | 6.4 | 0.00 | 7.19 | 1.45 | 96 | 1006.1 |
| 20260505233043 | 12 | 238 | 3.2 | 6.4 | 0.00 | 7.19 | 1.45 | 96 | 1006.1 |
| 20260505232529 | 12 | 254 | 1.6 | 6.4 | 0.00 | 7.19 | 1.45 | 96 | 1006.2 |
| 20260505232029 | 12 | 281 | 3.2 | 8.0 | 0.00 | 7.19 | 1.45 | 96 | 1006.1 |
| 20260505231540 | 12 | 304 | 3.2 | 8.0 | 0.00 | 7.19 | 1.45 | 96 | 1006.1 |
| 20260505231043 | 12 | 279 | 3.2 | 6.4 | 0.00 | 7.19 | 1.45 | 96 | 1006.1 |
| 20260505230532 | 12 | 292 | 1.6 | 6.4 | 0.00 | 7.19 | 1.45 | 96 | 1006.2 |
| 20260505230043 | 12 | 282 | 1.6 | 8.0 | 0.00 | 7.19 | 1.45 | 96 | 1006.2 |
| 20260505225535 | 12 | 292 | 1.6 | 6.4 | 0.00 | 7.19 | 1.45 | 96 | 1006.3 |
| 20260505225030 | 12 | 284 | 3.2 | 6.4 | 0.00 | 7.19 | 1.45 | 96 | 1006.4 |
| 20260505224540 | 12 | 276 | 3.2 | 9.7 | 0.00 | 7.19 | 1.45 | 96 | 1006.4 |
| 20260505224105 | 12 | 283 | 1.6 | 9.7 | 0.00 | 7.19 | 1.45 | 96 | 1006.4 |
| 20260505223529 | 12 | 246 | 3.2 | 8.0 | 0.00 | 7.19 | 1.45 | 96 | 1006.4 |
| 20260505223051 | 12 | 234 | 3.2 | 8.0 | 0.00 | 7.19 | 1.45 | 96 | 1006.4 |
| 20260505222602 | 12 | 237 | 1.6 | 3.2 | 0.00 | 7.19 | 1.45 | 96 | 1006.4 |
| 20260505222036 | 12 | 286 | 1.6 | 3.2 | 0.00 | 7.19 | 1.45 | 96 | 1006.5 |
| 20260505221545 | 12 | 280 | 1.6 | 3.2 | 0.00 | 7.19 | 1.45 | 96 | 1006.4 |
| 20260505221046 | 12 | 275 | 0.0 | 6.4 | 0.00 | 7.19 | 1.45 | 96 | 1006.4 |
| 20260505220534 | 12 | 281 | 1.6 | 6.4 | 0.00 | 7.19 | 1.45 | 96 | 1006.5 |
| 20260505220034 | 12 | 276 | 1.6 | 6.4 | 0.00 | 7.19 | 1.45 | 96 | 1006.4 |
| 20260505215539 | 12 | 315 | 1.6 | 9.7 | 0.00 | 7.19 | 1.45 | 96 | 1006.5 |
| 20260505215039 | 12 | 293 | 1.6 | 12.9 | 0.00 | 7.19 | 1.45 | 96 | 1006.4 |
| 20260505214542 | 12 | 311 | 4.8 | 12.9 | 0.00 | 7.19 | 1.45 | 96 | 1006.4 |
| 20260505214041 | 12 | 299 | 6.4 | 9.7 | 0.00 | 7.19 | 1.45 | 96 | 1006.4 |
| 20260505213541 | 12 | 302 | 4.8 | 11.3 | 0.00 | 7.19 | 1.45 | 96 | 1006.3 |
| 20260505213028 | 12 | 305 | 4.8 | 9.7 | 0.00 | 7.19 | 1.45 | 96 | 1006.4 |
| 20260505212532 | 12 | 288 | 3.2 | 8.0 | 0.00 | 7.19 | 1.45 | 96 | 1006.4 |
| 20260505212105 | 12 | 283 | 1.6 | 6.4 | 0.00 | 7.19 | 1.45 | 96 | 1006.4 |
| 20260505211551 | 12 | 303 | 1.6 | 11.3 | 0.00 | 7.19 | 1.45 | 96 | 1006.4 |
| 20260505211035 | 12 | 256 | 1.6 | 11.3 | 0.00 | 7.19 | 1.45 | 96 | 1006.4 |
| 20260505210539 | 12 | 273 | 1.6 | 6.4 | 0.00 | 7.19 | 1.45 | 96 | 1006.5 |
| 20260505210047 | 12 | 304 | 1.6 | 8.0 | 0.00 | 7.19 | 1.45 | 96 | 1006.5 |
| 20260505205533 | 12 | 286 | 1.6 | 8.0 | 0.10 | 7.19 | 1.45 | 96 | 1006.4 |
| 20260505205031 | 12 | 258 | 1.6 | 11.3 | 0.10 | 7.19 | 1.45 | 96 | 1006.4 |
| 20260505204542 | 12 | 255 | 3.2 | 11.3 | 0.10 | 7.19 | 1.45 | 96 | 1006.4 |
| 20260505204042 | 12 | 302 | 1.6 | 12.9 | 0.10 | 7.19 | 1.45 | 96 | 1006.5 |
| 20260505203529 | 12 | 303 | 4.8 | 12.9 | 0.10 | 7.19 | 1.45 | 96 | 1006.4 |
| 20260505203031 | 12 | 309 | 3.2 | 11.3 | 0.10 | 7.19 | 1.45 | 96 | 1006.4 |
| 20260505202542 | 12 | 315 | 3.2 | 12.9 | 0.10 | 7.19 | 1.45 | 96 | 1006.4 |
| 20260505202036 | 12 | 325 | 4.8 | 14.5 | 0.10 | 7.19 | 1.45 | 96 | 1006.3 |
| 20260505201538 | 12 | 270 | 6.4 | 14.5 | 0.10 | 7.19 | 1.45 | 96 | 1006.3 |
| 20260505201105 | 12 | 312 | 8.0 | 17.7 | 0.10 | 7.19 | 1.45 | 96 | 1006.2 |
| 20260505200533 | 12 | 330 | 9.7 | 17.7 | 0.10 | 7.19 | 1.45 | 95 | 1006.2 |
| 20260505200044 | 12 | 321 | 8.0 | 17.7 | 0.10 | 7.19 | 1.45 | 95 | 1006.1 |
| 20260505195603 | 12 | 305 | 9.7 | 17.7 | 0.00 | 7.11 | 1.42 | 95 | 1006.0 |
| 20260505195038 | 12 | 321 | 8.0 | 16.1 | 0.00 | 7.11 | 1.42 | 95 | 1006.0 |
| 20260505194546 | 12 | 333 | 9.7 | 17.7 | 0.00 | 7.11 | 1.42 | 95 | 1005.9 |
| 20260505194035 | 12 | 300 | 8.0 | 14.5 | 0.00 | 7.11 | 1.42 | 95 | 1005.8 |
| 20260505193537 | 12 | 295 | 6.4 | 17.7 | 0.00 | 7.11 | 1.42 | 95 | 1005.8 |
| 20260505193037 | 12 | 278 | 8.0 | 17.7 | 0.00 | 7.11 | 1.42 | 95 | 1005.7 |
| 20260505192547 | 12 | 290 | 3.2 | 16.1 | 0.00 | 7.11 | 1.42 | 95 | 1005.6 |
| 20260505192031 | 12 | 344 | 9.7 | 16.1 | 0.00 | 7.11 | 1.42 | 95 | 1005.6 |
| 20260505191532 | 12 | 329 | 6.4 | 19.3 | 0.00 | 7.11 | 1.42 | 95 | 1005.5 |
| 20260505191032 | 13 | 303 | 11.3 | 25.7 | 0.00 | 7.11 | 1.42 | 95 | 1005.5 |
| 20260505190556 | 13 | 317 | 12.9 | 25.7 | 0.00 | 7.11 | 1.42 | 95 | 1005.4 |
| 20260505190035 | 13 | 298 | 16.1 | 22.5 | 0.00 | 7.11 | 1.42 | 95 | 1005.3 |
| 20260505185538 | 13 | 318 | 9.7 | 19.3 | 0.00 | 7.11 | 1.42 | 95 | 1005.1 |
| 20260505185044 | 12 | 333 | 9.7 | 19.3 | 0.00 | 7.11 | 1.42 | 95 | 1005.0 |
| 20260505184535 | 13 | 273 | 8.0 | 19.3 | 0.00 | 7.11 | 1.42 | 95 | 1004.9 |
| 20260505184035 | 13 | 273 | 4.8 | 19.3 | 0.00 | 7.11 | 1.42 | 95 | 1004.9 |
| 20260505183532 | 13 | 275 | 6.4 | 20.9 | 0.00 | 7.11 | 1.42 | 95 | 1004.8 |
| 20260505183031 | 13 | 302 | 8.0 | 20.9 | 0.00 | 7.11 | 1.42 | 94 | 1004.7 |
| 20260505182541 | 13 | 275 | 8.0 | 17.7 | 0.00 | 7.11 | 1.42 | 94 | 1004.6 |
| 20260505182037 | 13 | 225 | 9.7 | 20.9 | 0.00 | 7.11 | 1.42 | 94 | 1004.6 |
| 20260505181541 | 13 | 257 | 9.7 | 20.9 | 0.00 | 7.11 | 1.42 | 93 | 1004.5 |
| 20260505181041 | 13 | 294 | 9.7 | 20.9 | 0.00 | 7.11 | 1.42 | 93 | 1004.6 |
| 20260505180606 | 13 | 227 | 4.8 | 17.7 | 0.10 | 7.11 | 1.42 | 93 | 1004.5 |
| 20260505180032 | 13 | 231 | 4.8 | 17.7 | 0.10 | 7.11 | 1.42 | 93 | 1004.5 |
| 20260505175542 | 13 | 272 | 6.4 | 25.7 | 0.10 | 7.11 | 1.42 | 93 | 1004.6 |
| 20260505175025 | 13 | 215 | 9.7 | 25.7 | 0.10 | 7.11 | 1.42 | 93 | 1004.5 |
| 20260505174602 | 13 | 188 | 8.0 | 22.5 | 0.10 | 7.11 | 1.42 | 93 | 1004.6 |
| 20260505174040 | 13 | 214 | 8.0 | 22.5 | 0.10 | 7.11 | 1.42 | 94 | 1004.4 |
| 20260505173545 | 13 | 252 | 8.0 | 29.0 | 0.10 | 7.11 | 1.42 | 93 | 1004.4 |
| 20260505173047 | 13 | 234 | 9.7 | 29.0 | 0.10 | 7.11 | 1.42 | 93 | 1004.5 |
| 20260505172529 | 13 | 236 | 6.4 | 17.7 | 0.10 | 7.11 | 1.42 | 93 | 1004.3 |
| 20260505172028 | 13 | 232 | 9.7 | 22.5 | 0.10 | 7.11 | 1.42 | 93 | 1004.4 |
| 20260505171531 | 13 | 236 | 11.3 | 22.5 | 0.10 | 7.11 | 1.42 | 93 | 1004.4 |
| 20260505171032 | 13 | 263 | 6.4 | 22.5 | 0.10 | 7.11 | 1.42 | 92 | 1004.4 |
| 20260505170540 | 13 | 291 | 6.4 | 22.5 | 0.00 | 7.01 | 1.40 | 91 | 1004.4 |
| 20260505170044 | 14 | 161 | 4.8 | 30.6 | 0.00 | 7.01 | 1.40 | 90 | 1004.6 |
| 20260505165613 | 15 | 212 | 9.7 | 30.6 | 0.00 | 7.01 | 1.40 | 89 | 1004.4 |
| 20260505165044 | 15 | 242 | 8.0 | 19.3 | 0.00 | 7.01 | 1.40 | 86 | 1004.4 |
| 20260505164545 | 15 | 235 | 11.3 | 20.9 | 0.00 | 7.01 | 1.40 | 85 | 1004.1 |
| 20260505164046 | 15 | 184 | 6.4 | 20.9 | 0.00 | 7.01 | 1.40 | 84 | 1004.4 |
| 20260505163539 | 16 | 255 | 8.0 | 17.7 | 0.00 | 7.01 | 1.40 | 82 | 1004.4 |
| 20260505163036 | 16 | 221 | 4.8 | 16.1 | 0.00 | 7.01 | 1.40 | 84 | 1004.5 |
| 20260505162547 | 16 | 195 | 6.4 | 16.1 | 0.00 | 7.01 | 1.40 | 83 | 1004.5 |
| 20260505162107 | 16 | 219 | 6.4 | 12.9 | 0.00 | 7.01 | 1.40 | 83 | 1004.6 |
| 20260505161531 | 16 | 238 | 3.2 | 12.9 | 0.00 | 7.01 | 1.40 | 85 | 1004.6 |
| 20260505161029 | 16 | 184 | 4.8 | 12.9 | 0.00 | 7.01 | 1.40 | 85 | 1004.7 |
| 20260505160600 | 16 | 196 | 1.6 | 11.3 | 0.00 | 7.01 | 1.40 | 83 | 1004.6 |
| 20260505153032 | 16 | 234 | 9.7 | 17.7 | 0.00 | 7.01 | 1.40 | 80 | 1004.7 |
| 20260505152541 | 16 | 221 | 4.8 | 12.9 | 0.00 | 7.01 | 1.40 | 81 | 1004.7 |
| 20260505152103 | 16 | 278 | 4.8 | 12.9 | 0.00 | 7.01 | 1.40 | 81 | 1004.8 |
| 20260505151534 | 17 | 236 | 3.2 | 12.9 | 0.00 | 7.01 | 1.40 | 80 | 1004.8 |
| 20260505151034 | 17 | 227 | 6.4 | 16.1 | 0.00 | 7.01 | 1.40 | 80 | 1004.7 |
| 20260505150539 | 17 | 323 | 4.8 | 14.5 | 0.00 | 7.01 | 1.40 | 81 | 1004.7 |
| 20260505140525 | 16 | 224 | 4.8 | 16.1 | 0.00 | 7.01 | 1.40 | 86 | 1004.9 |
| 20260505125034 | 15 | 233 | 6.4 | 14.5 | 0.00 | 7.01 | 1.40 | 92 | 1005.0 |